TimeEDT,TemperatureF,Dew PointF,Humidity,Sea Level PressureIn,VisibilityMPH,Wind Direction,Wind SpeedMPH,Gust SpeedMPH,PrecipitationIn,Events,Conditions,WindDirDegrees,DateUTC
12:53 AM,41.0,33.1,73,29.89,10.0,West,8.1,-,0.00,,Overcast,270,2012-11-03 04:53:00
1:53 AM,39.9,33.1,77,29.90,10.0,Variable,6.9,-,N/A,,Mostly Cloudy,0,2012-11-03 05:53:00
2:53 AM,39.9,30.9,70,29.90,10.0,WNW,8.1,-,N/A,,Overcast,290,2012-11-03 06:53:00
3:53 AM,39.9,28.9,65,29.91,10.0,WNW,6.9,-,N/A,,Overcast,290,2012-11-03 07:53:00
4:53 AM,39.9,28.9,65,29.91,10.0,WNW,9.2,-,N/A,,Overcast,290,2012-11-03 08:53:00
5:53 AM,39.9,28.9,65,29.93,10.0,West,6.9,-,N/A,,Overcast,280,2012-11-03 09:53:00
6:53 AM,39.9,30.0,68,29.95,10.0,WNW,5.8,-,N/A,,Overcast,300,2012-11-03 10:53:00
7:53 AM,39.9,30.0,68,29.96,10.0,WNW,6.9,-,N/A,,Overcast,290,2012-11-03 11:53:00
8:53 AM,41.0,30.9,67,29.98,10.0,Variable,5.8,-,N/A,,Overcast,0,2012-11-03 12:53:00
9:53 AM,42.1,30.9,65,29.99,10.0,WNW,5.8,-,N/A,,Overcast,290,2012-11-03 13:53:00
11:53 AM,44.1,30.9,60,30.00,10.0,NNW,12.7,21.9,N/A,,Overcast,330,2012-11-03 15:53:00
12:53 PM,45.0,30.9,58,29.99,10.0,NW,10.4,-,N/A,,Overcast,310,2012-11-03 16:53:00
1:53 PM,45.0,30.0,56,29.99,10.0,NW,10.4,16.1,N/A,,Overcast,310,2012-11-03 17:53:00
2:53 PM,45.0,30.0,56,29.99,10.0,NW,11.5,18.4,N/A,,Overcast,310,2012-11-03 18:53:00
3:53 PM,45.0,30.0,56,30.00,10.0,NW,8.1,-,N/A,,Overcast,310,2012-11-03 19:53:00
4:53 PM,45.0,30.0,56,30.00,10.0,NW,8.1,17.3,N/A,,Overcast,310,2012-11-03 20:53:00
5:53 PM,44.1,30.0,58,30.01,10.0,NW,11.5,-,N/A,,Overcast,310,2012-11-03 21:53:00
6:53 PM,44.1,30.0,58,30.03,10.0,NW,10.4,-,N/A,,Overcast,320,2012-11-03 22:53:00
7:53 PM,43.0,28.9,58,30.04,10.0,NW,10.4,-,N/A,,Overcast,310,2012-11-03 23:53:00
8:53 PM,43.0,28.9,58,30.04,10.0,NW,6.9,-,N/A,,Overcast,310,2012-11-04 00:53:00
9:53 PM,42.1,28.9,60,30.05,10.0,NW,8.1,-,N/A,,Overcast,310,2012-11-04 01:53:00
10:53 PM,42.1,28.9,60,30.06,10.0,NW,4.6,-,N/A,,Overcast,310,2012-11-04 02:53:00
11:53 PM,42.1,30.0,62,30.06,10.0,North,9.2,-,N/A,,Overcast,10,2012-11-04 03:53:00